Gold Coast Seaway Observation History
Time Wind Speed Temp Pressure Rel. Hum Rain
24/04:00pm S 11-14 kts 22.4°c 1012.8 hPa 57% 0.0mm
24/03:30pm S 10-14 kts 22.6°c 1012.7 hPa 54% 0.0mm
24/03:00pm S 11-15 kts 25.0°c 1012.5 hPa 50% 0.0mm
24/02:30pm S 10-14 kts 23.7°c 1012.4 hPa 52% 0.0mm
24/02:00pm SSE 14-17 kts 23.1°c 1012.3 hPa 58% 0.0mm
24/01:30pm E 7-9 kts 23.5°c 1012.4 hPa 56% 0.0mm
24/01:00pm E 8-9 kts 25.7°c 1012.6 hPa 49% 0.0mm
24/12:30pm E 8-10 kts 25.5°c 1013.0 hPa 49% 0.0mm
24/12:00pm E 7-9 kts 25.6°c 1013.5 hPa 50% 0.0mm
24/11:30am ENE 5-7 kts 24.9°c 1013.9 hPa 46% 0.0mm
24/11:00am NW 5-7 kts 24.5°c 1014.2 hPa 44% 0.0mm
24/10:30am NE 4-7 kts 23.8°c 1014.7 hPa 45% 0.0mm
24/10:00am ENE 3-5 kts 23.6°c 1015.1 hPa 47% 0.0mm
24/09:30am SE 3-6 kts 23.6°c 1015.4 hPa 51% 0.0mm
24/09:00am SSW 6-8 kts 22.5°c 1015.7 hPa 52% 0.0mm
24/08:30am W 5-7 kts 21.2°c 1015.7 hPa 58% 0.0mm
24/08:00am W 5-7 kts 20.3°c 1015.7 hPa 66% 0.0mm
24/07:30am W 4-6 kts 18.7°c 1015.6 hPa 79% 0.0mm
24/07:00am WNW 5-6 kts 17.4°c 1015.5 hPa 94% 0.0mm
24/06:30am WNW 5-6 kts 16.3°c 1015.3 hPa 96% 0.0mm
24/06:00am WNW 5-7 kts 16.1°c 1015.1 hPa 99% 0.0mm
24/05:30am WNW 7-8 kts 16.8°c 1014.9 hPa 99% 0.0mm
24/05:00am SW 4-5 kts 15.7°c 1014.5 hPa 96% 0.0mm
24/04:30am SW 4-5 kts 16.1°c 1014.5 hPa 92% 0.0mm
24/04:00am SW 4-5 kts 16.9°c 1014.3 hPa 91% 0.0mm
24/03:30am S 6-9 kts 17.0°c 1014.3 hPa 90% 0.0mm
24/03:00am WSW 5-7 kts 17.2°c 1014.5 hPa 93% 0.0mm
24/02:30am SW 5 kts 16.6°c 1014.6 hPa 91% 0.0mm
24/02:00am SW 5-7 kts 17.1°c 1014.7 hPa 88% 0.0mm
24/01:30am SSW 5-6 kts 17.1°c 1015.0 hPa 85% 0.0mm
24/01:00am SW 5-6 kts 17.9°c 1015.2 hPa 83% 0.0mm
24/12:30am SSW 6-8 kts 18.4°c 1015.5 hPa 82% 0.0mm
24/12:00am SW 6-8 kts 18.4°c 1015.5 hPa 81% 0.0mm
Time Wind Speed Temp Pressure Rel. Hum Rain
23/11:30pm SW 5-7 kts 18.6°c 1015.6 hPa 82% 0.0mm
23/11:00pm SSW 6-8 kts 18.6°c 1016.2 hPa 78% 0.0mm
23/10:30pm SSW 6-8 kts 18.8°c 1016.5 hPa 77% 0.0mm
23/10:00pm SW 5-8 kts 19.0°c 1016.5 hPa 76% 0.0mm
23/09:30pm SW 5-8 kts 19.1°c 1016.7 hPa 74% 0.0mm
23/09:00pm SSW 6-10 kts 19.5°c 1016.8 hPa 72% 0.0mm
23/08:30pm SSW 7-11 kts 19.8°c 1016.7 hPa 71% 0.0mm
23/08:00pm S 8-11 kts 20.2°c 1016.7 hPa 69% 0.0mm
23/07:30pm S 12-18 kts 20.5°c 1016.5 hPa 68% 0.0mm
23/07:00pm S 13-15 kts 20.8°c 1016.4 hPa 69% 0.0mm
23/06:30pm S 11-15 kts 21.0°c 1016.1 hPa 66% 0.0mm
23/06:00pm S 13-18 kts 21.3°c 1015.8 hPa 66% 0.0mm
23/05:30pm S 14-18 kts 21.5°c 1015.4 hPa 65% 0.0mm
23/05:00pm SSE 16-21 kts 22.4°c 1015.1 hPa 62% 0.0mm
23/04:30pm SSE 18-21 kts 23.4°c 1014.8 hPa 59% 0.0mm
23/04:00pm SSE 21-26 kts 24.1°c 1014.7 hPa 60% 0.0mm
23/03:30pm SSE 16-19 kts 24.9°c 1014.5 hPa 58% 0.0mm
23/03:00pm SSE 17-22 kts 24.5°c 1014.4 hPa 59% 0.0mm
23/02:30pm SSE 15-18 kts 25.3°c 1014.5 hPa 56% 0.0mm
23/02:00pm SSE 15-18 kts 25.3°c 1014.6 hPa 64% 0.0mm
23/01:30pm S 18-22 kts 22.4°c 1014.9 hPa 65% 0.0mm
23/01:13pm SSE 18-28 kts 25.2°c 1014.9 hPa 57% 0.0mm
23/01:00pm S 17-21 kts 24.6°c 1014.9 hPa 57% 0.0mm
23/12:30pm SSE 15-18 kts 26.4°c 1014.8 hPa 53% 0.0mm
23/12:00pm SSE 18-22 kts 25.7°c 1015.2 hPa 51% 0.0mm
23/11:30am SSE 20-24 kts 25.3°c 1015.5 hPa 59% 0.0mm
23/11:00am SSE 18-25 kts 25.5°c 1015.9 hPa 58% 0.0mm
23/10:30am S 15-20 kts 24.9°c 1016.3 hPa 60% 0.0mm
23/10:00am S 16-21 kts 24.2°c 1016.5 hPa 55% 0.0mm
23/09:30am S 16-20 kts 24.4°c 1016.4 hPa 56% 0.0mm
23/09:00am S 14-19 kts 23.5°c 1016.5 hPa 56% 0.0mm
23/08:30am S 15-22 kts 23.0°c 1016.5 hPa 61% 0.0mm
23/08:00am S 11-16 kts 21.9°c 1016.4 hPa 66% 0.0mm
23/07:30am S 10-16 kts 20.8°c 1016.5 hPa 72% 0.0mm
23/07:00am S 9-15 kts 19.7°c 1016.2 hPa 78% 0.0mm
23/06:30am S 9-12 kts 18.1°c 1016.0 hPa 84% 0.0mm
23/06:00am SSW 6-8 kts 18.0°c 1015.6 hPa 82% 0.0mm
23/05:30am SSW 5-9 kts 18.8°c 1015.2 hPa 82% 0.0mm
23/05:00am S 10-14 kts 18.9°c 1015.2 hPa 81% 0.0mm
23/04:30am S 11-16 kts 19.0°c 1015.2 hPa 79% 0.0mm
23/04:00am S 13-20 kts 19.2°c 1015.4 hPa 77% 0.0mm
23/03:30am S 13-20 kts 19.5°c 1015.5 hPa 76% 0.0mm
23/03:00am S 12-16 kts 19.4°c 1015.3 hPa 77% 0.0mm
23/02:30am S 10-14 kts 19.4°c 1015.5 hPa 78% 0.0mm
23/02:00am S 13-19 kts 19.4°c 1015.7 hPa 81% 0.0mm
23/01:30am SSW 7-10 kts 18.7°c 1016.1 hPa 88% 0.0mm
23/01:00am SW 5-6 kts 18.9°c 1016.1 hPa 88% 0.0mm
23/12:30am WSW 5-8 kts 19.6°c 1016.5 hPa 86% 0.0mm
23/12:00am S 10-14 kts 19.7°c 1016.7 hPa 83% 0.0mm
Time Wind Speed Temp Pressure Rel. Hum Rain
22/11:30pm S 9-13 kts 20.1°c 1017.1 hPa 81% 0.0mm
22/11:00pm S 13-17 kts 20.3°c 1017.5 hPa 84% 0.0mm
22/10:30pm S 17-21 kts 20.2°c 1017.7 hPa 87% 0.0mm
22/10:00pm SSE 19-26 kts 21.3°c 1018.3 hPa 85% 0.0mm
22/09:56pm SSE 18-26 kts 21.6°c 1018.4 hPa 82% 0.0mm
22/09:30pm S 9-13 kts 20.2°c 1018.0 hPa 73% 0.0mm
22/09:00pm S 11-16 kts 20.4°c 1017.8 hPa 72% 0.0mm
22/08:30pm S 10-15 kts 20.2°c 1017.8 hPa 75% 0.0mm
22/08:00pm S 11-16 kts 20.5°c 1017.5 hPa 72% 0.0mm
22/07:30pm S 16-20 kts 21.0°c 1017.7 hPa 73% 0.0mm
22/07:00pm S 14-18 kts 21.1°c 1017.4 hPa 71% 0.0mm
22/06:30pm S 12-17 kts 21.3°c 1017.3 hPa 69% 0.0mm
22/06:00pm S 14-18 kts 21.7°c 1017.1 hPa 65% 0.0mm
22/05:30pm S 16-21 kts 22.0°c 1017.2 hPa 61% 0.0mm
22/05:00pm S 15-18 kts 22.8°c 1016.9 hPa 58% 0.0mm
22/04:30pm S 16-20 kts 23.9°c 1016.6 hPa 60% 0.0mm
22/04:00pm SSE 18-22 kts 23.9°c 1016.3 hPa 59% 0.0mm
22/03:30pm S 18-22 kts 24.5°c 1016.1 hPa 58% 0.0mm
22/03:00pm SSE 18-22 kts 25.0°c 1016.2 hPa 59% 0.0mm
22/02:30pm SSE 18-21 kts 24.9°c 1016.4 hPa 61% 0.0mm
22/02:00pm SSE 17-21 kts 24.9°c 1016.6 hPa 63% 0.0mm
22/01:30pm SSE 20-24 kts 24.7°c 1016.8 hPa 66% 0.0mm
22/01:00pm SSE 20-25 kts 23.8°c 1017.0 hPa 74% 0.0mm
22/12:30pm SSE 23-28 kts 23.3°c 1017.3 hPa 77% 0.0mm
22/12:05pm SSE 20-30 kts 23.5°c 1017.8 hPa 69% 0.0mm
22/12:00pm SSE 19-22 kts 24.4°c 1017.8 hPa 68% 0.0mm
22/11:30am SSE 18-22 kts 23.5°c 1018.0 hPa 72% 0.0mm
22/11:00am SSE 22-27 kts 24.1°c 1018.4 hPa 66% 0.0mm
22/10:30am S 19-25 kts 23.8°c 1018.5 hPa 66% 0.0mm
22/10:00am S 21-26 kts 22.5°c 1018.7 hPa 69% 0.0mm
22/09:30am S 23-29 kts 22.5°c 1018.8 hPa 75% 0.0mm
22/09:00am SSE 25-31 kts 21.3°c 1018.8 hPa 81% 0.0mm
22/08:30am S 25-30 kts 21.8°c 1018.4 hPa 74% 0.0mm
22/08:12am S 21-32 kts 21.6°c 1018.1 hPa 72% 0.0mm
22/08:00am S 19-26 kts 21.6°c 1018.0 hPa 72% 0.0mm
22/07:30am S 15-19 kts 20.6°c 1017.7 hPa 79% 0.0mm
22/07:00am S 18-25 kts 20.1°c 1017.4 hPa 79% 0.0mm
22/06:30am S 15-21 kts 20.1°c 1017.2 hPa 77% 0.0mm
22/06:00am S 12-18 kts 19.9°c 1016.9 hPa 77% 0.0mm
22/05:30am S 14-18 kts 19.8°c 1016.9 hPa 78% 0.0mm
22/05:00am S 10-17 kts 19.6°c 1016.7 hPa 81% 0.0mm
22/04:30am SSW 8-12 kts 19.5°c 1016.7 hPa 81% 0.0mm
22/04:00am SSW 6-9 kts 19.5°c 1016.6 hPa 81% 0.0mm
22/03:30am SSW 7-10 kts 19.7°c 1016.5 hPa 81% 0.0mm
22/03:00am S 11-19 kts 19.8°c 1016.6 hPa 80% 0.0mm
22/02:30am S 11-17 kts 20.1°c 1016.9 hPa 78% 0.0mm
22/02:00am S 15-24 kts 20.3°c 1017.0 hPa 79% 0.0mm
22/01:30am S 13-19 kts 20.1°c 1017.2 hPa 77% 0.0mm
22/01:00am S 15-18 kts 20.4°c 1017.3 hPa 74% 0.0mm
22/12:30am S 10-16 kts 20.4°c 1017.6 hPa 78% 0.0mm
22/12:00am S 11-17 kts 20.5°c 1017.6 hPa 77% 0.0mm